Temp
-12 -12 -12 -12 -12 -12 -12 -13 -12 -12 -12 -12 -13 -13 -13 -13 -13 -13 -14 -13 -13 -13 -12 -12 -12 -12 -11 -11 -11 -11 -11 -11 -11 -11 -11 -11 -12 -12 -12 -12 -11 -11 -11
-12 -12 -12 -12 -12 -12 -12 -13 -13 -12 -12 -12 -12 -13 -13 -13 -13 -13 -13 -13 -13 -13 -12 -12 -12 -11 -11 -11 -10 -11 -11 -11 -12 -12 -12 -12 -12 -12 -11 -11 -11 -11 -12
-13 -13 -13 -12 -12 -12 -12 -13 -13 -12 -12 -12 -13 -13 -13 -13 -13 -13 -13 -13 -13 -12 -12 -12 -12 -12 -11 -10 -11 -11 -11 -12 -12 -12 -12 -12 -11 -11 -11 -11 -11 -11 -12
-13 -12 -12 -12 -12 -12 -12 -12 -12 -12 -12 -12 -13 -13 -13 -13 -13 -13 -13 -13 -13 -13 -13 -12 -12 -12 -11 -12 -12 -11 -12 -12 -12 -11 -11 -11 -11 -11 -11 -11 -11 -12 -12
-13 -12 -12 -12 -12 -12 -12 -13 -12 -13 -12 -12 -12 -13 -13 -13 -13 -13 -12 -13 -12 -12 -12 -12 -12 -12 -12 -13 -12 -12 -12 -12 -11 -11 -12 -11 -11 -11 -11 -12 -12 -13 -13
-12 -12 -12 -12 -12 -12 -12 -12 -12 -12 -12 -12 -12 -13 -12 -12 -13 -13 -13 -12 -12 -12 -12 -12 -12 -12 -12 -12 -12 -12 -12 -12 -12 -12 -11 -12 -12 -12 -12 -13 -13 -14 -14
-12 -12 -12 -12 -12 -12 -12 -12 -12 -12 -12 -12 -12 -12 -12 -13 -13 -13 -13 -13 -12 -12 -12 -12 -12 -12 -12 -12 -12 -12 -12 -12 -12 -12 -12 -12 -12 -13 -13 -14 -14 -14 -14
-12 -12 -12 -12 -12 -12 -12 -12 -12 -12 -12 -12 -12 -12 -12 -12 -12 -12 -12 -12 -12 -12 -12 -12 -12 -12 -12 -12 -12 -12 -12 -12 -12 -12 -13 -13 -14 -14 -14 -14 -14 -14 -14
-12 -12 -12 -12 -12 -13 -12 -12 -12 -12 -12 -12 -12 -13 -13 -13 -12 -12 -12 -12 -12 -12 -12 -12 -12 -12 -12 -12 -12 -12 -12 -13 -13 -13 -13 -13 -13 -14 -14 -15 -14 -14 -14
-13 -12 -13 -13 -13 -13 -13 -12 -12 -12 -12 -12 -12 -12 -12 -12 -13 -13 -12 -12 -12 -12 -12 -12 -12 -12 -12 -12 -12 -12 -12 -13 -13 -13 -13 -14 -14 -14 -14 -14 -14 -14 -14
-13 -13 -13 -13 -13 -13 -13 -13 -12 -12 -12 -12 -12 -12 -12 -12 -12 -12 -12 -12 -13 -13 -13 -12 -12 -12 -12 -13 -13 -13 -13 -13 -13 -13 -13 -14 -14 -14 -14 -14 -14 -14 -14
-13 -13 -13 -12 -13 -13 -12 -12 -12 -12 -12 -12 -12 -12 -12 -12 -13 -13 -12 -12 -12 -12 -12 -12 -12 -12 -13 -13 -13 -13 -13 -13 -13 -13 -14 -14 -14 -14 -14 -14 -14 -15 -15
-13 -12 -12 -12 -12 -12 -12 -12 -12 -12 -12 -12 -12 -12 -12 -12 -12 -12 -12 -12 -12 -12 -12 -12 -13 -13 -13 -13 -13 -13 -13 -13 -14 -14 -14 -14 -14 -14 -14 -14 -14 -14 -14
-13 -13 -12 -12 -12 -12 -12 -12 -12 -12 -12 -12 -12 -12 -12 -12 -12 -12 -12 -12 -12 -13 -13 -13 -13 -13 -13 -13 -13 -13 -13 -13 -13 -13 -14 -14 -14 -14 -14 -15 -15 -15 -14
-13 -13 -13 -13 -13 -13 -13 -13 -12 -12 -12 -12 -12 -12 -12 -12 -12 -12 -12 -12 -12 -12 -12 -12 -12 -13 -13 -13 -13 -13 -13 -13 -14 -14 -14 -14 -14 -14 -14 -14 -15 -15 -14
-13 -13 -13 -13 -13 -13 -13 -13 -13 -12 -12 -12 -12 -12 -12 -12 -12 -12 -12 -13 -12 -12 -12 -12 -13 -13 -13 -13 -13 -13 -13 -14 -14 -14 -14 -14 -14 -14 -14 -15 -15 -15 -16
-13 -13 -13 -13 -13 -13 -13 -13 -12 -13 -12 -12 -12 -12 -12 -12 -13 -13 -13 -13 -13 -13 -13 -13 -13 -13 -13 -13 -13 -13 -13 -13 -14 -14 -14 -14 -14 -14 -15 -15 -15 -16 -16
-13 -13 -13 -13 -13 -13 -13 -13 -13 -13 -13 -13 -13 -13 -13 -13 -13 -13 -13 -13 -13 -13 -13 -13 -13 -13 -13 -13 -13 -14 -14 -14 -15 -15 -15 -15 -15 -15 -15 -16 -16 -16 -16
-13 -13 -13 -13 -13 -13 -13 -13 -13 -13 -13 -13 -13 -13 -13 -13 -13 -13 -13 -13 -13 -13 -14 -13 -13 -13 -13 -14 -13 -14 -14 -15 -15 -15 -15 -15 -16 -16 -16 -16 -16 -17 -17
-13 -14 -14 -14 -14 -14 -13 -13 -13 -13 -13 -13 -13 -13 -14 -14 -14 -13 -13 -13 -13 -13 -13 -13 -13 -13 -13 -14 -14 -14 -15 -15 -15 -15 -16 -16 -16 -16 -16 -17 -18 -18 -18
-14 -14 -14 -14 -14 -14 -14 -14 -14 -13 -13 -14 -13 -13 -14 -14 -14 -14 -14 -14 -14 -13 -13 -13 -13 -14 -14 -14 -14 -15 -15 -15 -16 -16 -16 -17 -16 -16 -18 -19 -18 -18 -18
-14 -14 -14 -14 -14 -14 -14 -14 -14 -14 -14 -14 -13 -13 -15 -15 -14 -14 -14 -14 -14 -14 -14 -14 -14 -15 -15 -15 -15 -15 -15 -16 -16 -16 -16 -16 -17 -19 -19 -18 -18 -19 -20
-14 -14 -14 -14 -15 -14 -14 -14 -14 -14 -14 -14 -13 -14 -14 -15 -14 -14 -14 -14 -14 -14 -14 -15 -15 -15 -15 -15 -15 -15 -15 -15 -16 -16 -16 -18 -19 -19 -18 -19 -19 -21 -21
-14 -14 -14 -14 -15 -15 -14 -14 -14 -14 -13 -13 -14 -15 -15 -14 -15 -15 -15 -15 -15 -14 -14 -15 -15 -15 -15 -15 -15 -15 -15 -16 -16 -18 -19 -19 -19 -18 -19 -20 -21 -21 -22
-14 -14 -14 -14 -14 -14 -14 -14 -15 -15 -13 -13 -14 -14 -14 -14 -15 -15 -15 -15 -14 -14 -14 -15 -15 -15 -15 -15 -15 -16 -16 -17 -18 -19 -19 -19 -20 -20 -21 -21 -22 -23 -23
-14 -14 -14 -14 -14 -15 -15 -14 -14 -14 -14 -14 -14 -14 -15 -15 -15 -15 -15 -15 -15 -14 -14 -15 -15 -15 -16 -16 -16 -17 -18 -19 -20 -20 -20 -20 -21 -22 -22 -22 -23 -24 -25
Height
5741 5740 5738 5738 5736 5734 5731 5728 5724 5722 5721 5720 5720 5722 5724 5727 5730 5735 5739 5745 5749 5754 5758 5762 5763 5769 5776 5782 5790 5795 5800 5804 5808 5811 5813 5816 5818 5822 5824 5826 5828 5832 5831
5742 5741 5739 5739 5739 5737 5735 5733 5730 5727 5726 5726 5727 5728 5731 5733 5737 5742 5746 5749 5756 5758 5762 5762 5766 5772 5779 5786 5789 5797 5802 5805 5808 5811 5813 5817 5820 5822 5824 5826 5828 5830 5829
5744 5743 5742 5741 5741 5741 5740 5739 5737 5733 5731 5732 5734 5736 5738 5740 5742 5746 5750 5753 5758 5760 5764 5767 5772 5777 5783 5789 5794 5799 5802 5804 5808 5811 5815 5818 5820 5822 5824 5826 5826 5825 5827
5746 5746 5745 5745 5745 5745 5745 5744 5743 5741 5739 5738 5738 5740 5743 5747 5749 5752 5754 5757 5761 5765 5768 5772 5777 5781 5786 5791 5796 5800 5803 5807 5810 5812 5815 5817 5819 5822 5823 5823 5824 5825 5825
5750 5749 5748 5748 5748 5749 5749 5749 5748 5747 5746 5745 5746 5747 5749 5752 5755 5757 5760 5762 5764 5769 5772 5775 5779 5783 5789 5794 5798 5802 5806 5808 5811 5813 5815 5818 5819 5821 5821 5822 5822 5821 5819
5753 5753 5751 5751 5751 5752 5752 5752 5753 5752 5752 5751 5752 5753 5754 5757 5760 5763 5765 5767 5770 5773 5776 5781 5784 5788 5792 5796 5800 5805 5807 5810 5812 5814 5816 5817 5818 5818 5819 5819 5816 5813 5811
5755 5755 5755 5754 5755 5755 5755 5756 5756 5757 5757 5758 5758 5759 5761 5763 5766 5768 5770 5773 5776 5779 5781 5783 5787 5791 5797 5801 5803 5806 5809 5811 5813 5814 5814 5815 5815 5813 5811 5810 5807 5806 5804
5757 5757 5757 5757 5758 5758 5758 5760 5761 5762 5762 5763 5765 5766 5766 5767 5770 5773 5775 5777 5780 5783 5786 5788 5792 5795 5799 5801 5803 5806 5808 5810 5810 5811 5810 5808 5807 5806 5805 5805 5802 5800 5797
5759 5759 5760 5760 5761 5762 5762 5764 5765 5766 5767 5767 5768 5769 5771 5773 5775 5776 5778 5781 5783 5786 5789 5791 5794 5797 5798 5800 5801 5803 5804 5805 5805 5805 5805 5805 5804 5803 5800 5797 5794 5791 5788
5760 5761 5761 5763 5764 5765 5766 5767 5769 5770 5771 5772 5772 5773 5775 5777 5779 5781 5783 5785 5786 5788 5789 5791 5794 5796 5798 5799 5801 5802 5802 5802 5802 5803 5801 5799 5797 5795 5793 5790 5786 5781 5776
5760 5762 5763 5764 5766 5767 5768 5769 5770 5771 5773 5774 5775 5777 5778 5779 5780 5782 5783 5784 5786 5788 5790 5792 5793 5795 5796 5797 5798 5798 5797 5797 5797 5796 5795 5793 5791 5788 5785 5780 5775 5770 5765
5760 5762 5763 5764 5766 5768 5770 5770 5771 5772 5774 5775 5776 5777 5778 5779 5780 5781 5782 5784 5785 5787 5788 5790 5792 5793 5795 5795 5796 5796 5795 5794 5792 5790 5787 5784 5781 5779 5776 5772 5769 5764 5756
5760 5761 5764 5765 5766 5768 5770 5771 5772 5773 5775 5776 5776 5777 5779 5779 5780 5781 5783 5784 5785 5786 5787 5789 5790 5790 5790 5790 5791 5790 5789 5786 5784 5782 5779 5777 5773 5769 5766 5761 5755 5750 5744
5758 5760 5762 5764 5766 5768 5769 5771 5772 5773 5775 5776 5777 5778 5778 5779 5780 5781 5782 5783 5783 5783 5784 5785 5785 5785 5784 5783 5783 5782 5780 5779 5778 5776 5773 5770 5765 5761 5755 5749 5744 5737 5730
5754 5757 5760 5762 5765 5766 5768 5769 5771 5772 5773 5774 5775 5776 5777 5778 5778 5779 5779 5780 5780 5779 5779 5779 5779 5779 5778 5777 5777 5776 5775 5773 5771 5767 5764 5759 5754 5749 5744 5738 5732 5725 5716
5750 5752 5756 5758 5761 5763 5764 5766 5767 5769 5770 5771 5772 5773 5775 5775 5775 5775 5775 5775 5774 5774 5774 5774 5774 5773 5772 5771 5770 5767 5768 5766 5761 5757 5754 5748 5742 5737 5731 5725 5718 5710 5702
5746 5748 5750 5753 5755 5758 5759 5761 5762 5763 5765 5766 5767 5767 5769 5769 5770 5770 5770 5770 5769 5769 5768 5767 5767 5766 5765 5763 5762 5757 5757 5755 5751 5747 5741 5736 5730 5724 5718 5711 5704 5696 5688
5741 5743 5745 5747 5750 5751 5753 5754 5755 5756 5757 5758 5759 5761 5763 5763 5763 5763 5763 5763 5763 5762 5762 5760 5760 5758 5758 5756 5754 5750 5746 5743 5739 5734 5728 5723 5717 5711 5704 5697 5689 5682 5674
5734 5736 5740 5742 5743 5744 5746 5748 5748 5749 5750 5751 5753 5754 5754 5756 5756 5756 5756 5756 5755 5755 5755 5754 5752 5751 5749 5746 5743 5740 5737 5732 5728 5723 5716 5709 5704 5697 5690 5683 5677 5668 5659
5727 5729 5732 5735 5736 5737 5739 5741 5742 5742 5743 5744 5746 5746 5747 5747 5748 5749 5749 5749 5748 5747 5748 5746 5743 5742 5740 5738 5734 5730 5725 5721 5716 5711 5704 5697 5691 5685 5677 5669 5663 5655 5646
5718 5720 5725 5727 5729 5731 5732 5733 5734 5733 5734 5734 5736 5741 5740 5738 5739 5741 5741 5741 5741 5740 5740 5738 5737 5733 5730 5726 5723 5719 5716 5710 5705 5698 5692 5684 5677 5672 5663 5657 5650 5642 5634
5709 5711 5715 5719 5722 5722 5723 5725 5726 5725 5725 5725 5723 5731 5732 5727 5732 5732 5732 5731 5732 5731 5729 5727 5724 5722 5719 5715 5711 5707 5701 5697 5690 5684 5677 5670 5663 5658 5652 5644 5637 5630 5622
5699 5702 5703 5708 5711 5713 5713 5715 5716 5716 5716 5713 5717 5718 5717 5717 5722 5722 5722 5720 5720 5719 5717 5715 5711 5709 5706 5702 5699 5694 5690 5683 5678 5670 5665 5659 5654 5648 5640 5633 5626 5618 5607
5688 5690 5692 5694 5700 5701 5703 5705 5706 5705 5702 5704 5710 5711 5708 5709 5713 5713 5712 5711 5710 5708 5706 5703 5699 5695 5692 5689 5684 5681 5677 5670 5664 5659 5653 5649 5644 5636 5630 5623 5615 5605 5592
5678 5680 5682 5683 5687 5689 5692 5693 5693 5692 5689 5695 5698 5697 5698 5699 5701 5702 5701 5699 5698 5696 5693 5689 5688 5684 5682 5678 5673 5667 5662 5659 5654 5650 5645 5640 5633 5625 5619 5612 5602 5591 5580
5667 5669 5673 5673 5676 5678 5678 5681 5681 5683 5682 5683 5685 5686 5687 5688 5689 5690 5690 5688 5685 5682 5680 5678 5676 5672 5668 5664 5661 5656 5653 5649 5646 5642 5636 5630 5622 5616 5610 5601 5591 5581 5570
Wind_Speed
1 5 8 8 10 12 12 12 14 12 13 14 15 18 17 21 20 24 25 31 28 36 30 18 29 29 32 35 23 23 18 16 18 17 15 14 10 9 9 9 7 8 7
4 7 9 9 10 10 14 14 18 16 14 15 19 18 23 19 23 20 21 19 30 21 24 20 29 29 33 27 22 23 17 14 13 13 12 9 10 11 9 8 9 12 11
6 10 10 10 10 11 14 12 18 16 17 13 12 13 18 18 20 16 20 18 24 6 13 21 27 29 28 26 22 22 14 11 10 11 11 11 10 9 10 12 12 11 14
6 8 9 11 11 13 14 11 13 17 19 16 15 15 15 18 22 21 16 14 13 12 11 13 21 21 20 20 20 17 15 14 12 11 9 10 10 11 10 11 14 17 20
7 8 8 9 10 10 11 12 13 14 15 20 17 19 26 17 16 18 17 13 20 17 12 18 22 23 22 16 13 12 11 11 11 11 11 10 9 12 16 19 22 23 23
6 7 6 6 10 9 10 10 10 12 13 16 22 23 21 18 18 19 18 16 15 19 18 18 19 16 15 14 15 15 13 11 10 10 12 14 16 17 19 20 20 20 24
4 6 8 8 8 10 8 9 11 17 18 18 19 21 21 21 22 20 21 21 21 18 18 19 19 17 17 15 13 11 9 10 11 12 13 14 16 16 17 19 22 26 28
5 6 9 9 8 8 11 13 14 15 16 17 19 19 19 17 16 16 16 16 16 17 16 16 16 14 13 12 10 11 11 12 13 14 14 14 17 19 21 23 27 29 31
3 5 8 11 11 11 13 14 14 13 13 12 13 14 15 16 15 12 10 9 10 11 12 11 11 10 9 10 11 12 12 14 14 15 18 20 21 22 24 27 31 33 37
4 6 8 10 12 13 12 12 11 11 11 11 11 10 10 9 9 10 11 11 11 10 10 11 11 12 12 13 14 14 14 16 19 21 21 22 24 26 29 31 36 40 43
8 8 8 7 8 11 11 9 7 5 5 5 6 6 6 5 4 4 4 5 7 11 14 15 14 13 13 13 15 18 18 18 21 22 23 25 28 31 34 38 41 45 49
9 9 9 9 8 8 8 7 6 5 5 4 3 3 3 3 3 2 3 4 5 8 11 14 14 13 15 16 17 18 19 20 22 24 27 31 35 38 40 43 46 50 54
12 12 12 10 9 8 6 5 5 5 5 4 3 2 3 4 4 5 5 5 5 7 10 12 15 15 16 18 19 20 22 24 27 30 33 36 39 43 46 50 54 55 58
17 16 14 13 12 11 9 7 6 5 6 7 7 6 5 6 6 8 9 11 12 13 14 14 15 16 18 20 22 23 26 27 31 34 37 40 44 47 49 52 54 55 59
24 22 20 19 17 16 14 13 12 10 10 11 12 13 13 13 12 12 13 14 15 17 18 19 20 21 22 24 26 27 28 30 33 36 38 44 48 51 52 55 53 56 59
22 27 28 25 23 23 22 22 21 21 21 21 21 21 20 20 19 20 20 19 21 22 22 23 23 24 26 27 27 28 27 31 37 40 44 48 52 49 55 59 59 60 64
22 22 26 31 32 32 30 30 30 29 29 29 28 27 25 25 25 25 23 22 23 23 23 24 25 25 26 27 29 34 36 39 42 46 49 50 54 50 48 54 57 64 69
26 28 30 30 28 30 30 30 30 30 29 29 30 28 27 28 28 28 27 27 27 26 26 27 25 26 29 32 35 39 43 45 46 52 55 55 56 57 59 61 62 59 64
28 30 31 30 32 33 33 33 32 30 30 30 30 30 30 29 29 29 29 30 29 28 27 26 29 31 34 38 41 44 47 49 51 54 56 56 53 57 60 56 61 63 61
31 32 33 31 29 31 29 30 31 31 32 32 31 32 30 28 29 29 29 30 31 30 29 32 35 38 39 41 40 43 44 42 47 57 61 58 64 61 60 57 57 59 62
39 37 34 35 35 32 33 35 38 42 37 33 32 29 29 32 30 29 30 31 33 34 35 38 37 38 40 43 46 46 48 51 58 61 65 63 68 59 46 52 57 61 63
45 44 43 39 41 41 42 41 43 47 46 34 37 28 28 36 30 32 33 35 36 36 37 38 41 42 43 45 46 52 58 66 67 64 57 47 47 46 50 54 58 62 63
49 51 54 47 45 45 47 46 45 45 41 45 42 43 30 37 34 33 32 34 35 37 40 43 45 47 49 51 51 54 60 53 53 49 45 45 46 50 52 56 59 60 63
36 35 40 43 43 47 44 43 41 48 55 47 37 34 41 36 31 33 35 36 39 40 43 47 47 48 47 51 54 55 55 51 45 40 40 44 49 51 53 54 58 60 63
37 39 39 37 39 42 42 43 44 52 46 43 44 40 38 36 36 38 38 39 42 46 48 54 56 52 54 56 53 45 41 41 38 38 43 46 48 49 51 56 57 59 62
46 40 36 34 36 41 47 46 46 46 45 48 50 39 38 41 44 42 38 37 39 50 54 50 52 57 60 53 45 39 36 34 36 40 42 46 47 48 51 51 53 57 61
Wind_Direction
3 13 19 14 31 39 53 25 39 79 102 106 107 127 131 136 141 143 145 161 172 158 166 165 190 173 159 162 164 175 180 189 196 203 223 223 199 211 216 229 227 250 265
45 22 30 30 48 65 70 53 50 66 116 119 114 121 127 122 143 144 138 148 169 181 131 149 178 165 156 161 167 182 182 200 203 194 173 187 217 223 209 217 236 245 260
58 54 48 50 63 76 87 82 69 90 111 132 134 135 124 110 122 137 148 159 167 155 102 128 120 133 155 177 189 193 198 169 179 187 202 204 199 209 221 233 248 264 268
72 80 56 71 83 79 77 100 81 77 83 123 100 131 142 132 127 136 138 137 139 140 142 142 147 163 173 163 159 163 180 189 195 189 195 202 214 230 249 263 262 259 263
76 97 88 78 89 85 81 100 102 92 86 86 106 111 129 125 138 134 154 145 138 153 173 169 155 159 159 158 169 175 177 181 187 195 210 217 230 239 247 253 256 261 270
76 87 95 97 87 98 100 94 120 110 98 96 106 117 149 144 133 136 145 141 148 152 140 137 141 148 154 163 164 172 182 188 198 208 215 223 236 248 255 259 267 277 281
76 96 94 102 111 110 103 96 102 112 116 112 106 106 111 116 119 120 127 130 131 132 141 139 141 147 159 163 165 172 183 200 218 225 235 245 249 256 268 277 283 284 287
93 104 104 102 110 106 109 112 113 107 104 108 114 116 111 106 107 116 122 125 132 135 136 139 145 154 159 163 176 195 211 222 230 243 254 263 273 279 283 286 287 285 288
138 123 124 116 110 107 111 115 116 117 116 113 111 112 118 123 125 125 123 126 133 140 149 150 160 175 188 201 218 233 246 253 260 263 267 277 284 288 292 295 296 299 300
189 146 138 138 134 129 121 118 117 117 118 121 116 111 111 112 120 134 149 162 169 176 179 183 190 200 213 226 240 251 257 258 259 266 276 286 296 300 301 304 303 302 301
205 191 167 158 160 159 154 146 139 133 130 133 132 130 132 143 160 174 185 190 191 193 199 206 212 223 233 239 243 249 261 275 286 295 300 300 301 303 305 304 303 302 303
211 203 191 181 187 190 188 186 186 181 173 157 143 128 120 123 139 183 218 236 237 234 233 229 238 259 267 267 268 278 289 296 302 305 305 305 305 304 304 302 303 303 303
220 211 209 198 188 187 189 189 180 179 190 197 216 259 285 292 293 291 287 282 282 276 271 270 274 277 278 280 286 293 297 300 300 300 300 301 302 302 303 303 302 302 304
226 222 218 217 213 206 206 210 220 231 248 261 270 271 283 292 296 295 296 296 294 292 292 289 281 280 282 286 291 293 294 296 300 301 303 302 299 298 302 303 303 302 302
224 227 228 227 227 226 228 234 239 253 267 274 277 278 279 282 289 293 292 290 287 286 285 284 284 283 283 286 289 290 291 295 298 299 301 307 303 298 298 305 304 303 307
225 225 229 231 234 238 245 252 258 264 269 274 278 276 276 277 277 282 283 283 284 284 285 285 285 286 286 287 288 286 288 294 296 300 301 305 305 299 296 300 301 308 309
230 231 234 235 239 244 249 254 259 263 267 271 273 274 274 273 275 279 280 281 283 286 288 289 290 291 292 294 296 296 296 293 298 298 298 301 307 306 307 311 307 305 302
235 238 238 240 241 245 248 251 255 258 262 266 269 272 273 273 275 278 279 280 282 283 285 288 291 293 295 294 293 294 296 298 298 300 300 303 304 305 306 305 306 302 305
241 244 243 245 247 248 250 255 257 259 263 265 268 269 270 271 274 277 280 278 278 280 285 287 291 291 292 291 294 296 296 298 300 307 308 301 301 303 302 302 304 309 312
247 247 250 247 242 244 249 255 259 266 265 264 266 268 270 270 270 275 279 281 279 280 282 286 286 289 294 297 296 298 304 299 305 308 304 304 300 298 298 307 311 312 313
247 251 253 250 252 252 258 260 264 265 266 267 268 262 267 266 269 273 274 277 281 284 286 284 289 295 297 297 292 299 299 303 296 296 297 294 290 299 310 313 312 313 314
248 254 256 253 251 257 264 265 265 271 266 253 265 272 248 265 267 274 277 278 280 283 284 288 290 293 292 293 294 304 306 295 293 292 288 295 312 311 310 313 314 314 314
255 255 258 256 251 257 261 261 267 270 268 255 261 265 277 269 271 277 278 278 279 280 282 284 288 291 295 297 300 298 294 289 286 290 302 311 310 308 313 314 313 315 320
252 258 257 253 251 258 256 261 261 258 255 268 268 260 262 271 277 273 273 276 278 281 283 286 289 286 292 298 292 284 287 284 297 308 312 307 307 311 313 312 315 320 325
254 257 262 261 250 252 254 259 266 271 259 261 275 264 270 269 275 273 275 279 281 280 285 288 284 281 286 285 280 281 288 304 308 306 304 306 310 313 314 315 322 328 333
255 258 262 261 259 256 257 258 259 262 263 265 271 263 265 264 267 270 276 287 301 296 297 293 289 287 283 278 281 296 301 300 300 301 306 311 315 315 315 324 331 336 339